Satellite: FENGYUN 1D
Catalog number: 27431
Epoch time:      103066.56431973
Element set:     231 
Inclination:       98.7644 deg
RA of node:       115.0868 deg
Eccentricity:    0.0016305
Arg of perigee:    75.6333 deg
Mean anomaly:     284.6646 deg
Mean motion:   14.09177798 rev/day
Decay rate:   -1.7600E-006 rev/day^2
Epoch rev:            4176
Checksum:              322

Satellite: NOAA 17
Catalog number: 27453
Epoch time:      103066.57796309
Element set:     329 
Inclination:       98.7541 deg
RA of node:       137.6979 deg
Eccentricity:    0.0011250
Arg of perigee:   311.3523 deg
Mean anomaly:      48.6687 deg
Mean motion:   14.23303192 rev/day
Decay rate:    2.8800E-006 rev/day^2
Epoch rev:            3638
Checksum:              326

Satellite: HOT BIRD 6
Catalog number: 27499
Epoch time:      103054.87288413
Element set:     70 
Inclination:        0.0150 deg
RA of node:       173.7812 deg
Eccentricity:    0.0009015
Arg of perigee:   197.5701 deg
Mean anomaly:     109.1063 deg
Mean motion:    1.00270140 rev/day
Decay rate:    7.5000E-007 rev/day^2
Epoch rev:             188
Checksum:              258

Satellite: RUBIN 2
Catalog number: 27605
Epoch time:      103066.70767568
Element set:     76 
Inclination:       64.5516 deg
RA of node:       145.1938 deg
Eccentricity:    0.0035562
Arg of perigee:   106.2644 deg
Mean anomaly:     254.2373 deg
Mean motion:   14.71398352 rev/day
Decay rate:    8.3900E-006 rev/day^2
Epoch rev:            1133
Checksum:              309


Read previous mail | Read next mail


 27.06.2026 12:14:49lGo back Go up